Mojave, CA

5:05 AM PST on November 13, 2019 (GMT -0800)
Mojave

Weather History for KMHV - June, 2019

Change the Weather History Date:

Friday, June 14, 2019

  Actual Average Record
Temperature  
Mean Temperature 82 °F -  
Max Temperature 91 °F 87 °F 102 °F (1966)
Min Temperature 73 °F 60 °F 40 °F (1970)
Cooling Degree Days 17    
Growing Degree Days 32 (Base 50)    
Moisture  
Dew Point 42 °F    
Average Humidity 26    
Maximum Humidity 41    
Minimum Humidity 16    
Precipitation  
Precipitation 0.00 in - - ()
Sea Level Pressure  
Sea Level Pressure 29.86 in    
Wind  
Wind Speed 27 mph (WNW)    
Max Wind Speed 33 mph    
Max Gust Speed 53 mph    
Visibility 10 miles    
Events      
Averages and records for this station are not official NWS values.
T = Trace of Precipitation, MM = Missing Value Source: NWS Daily Summary

Daily Weather History Graph

Daily Weather History Graph

Search for Another Location

Airport or City:

Astronomy

Jun. 14, 2019 Rise Set
Actual Time 5:37 AM PDT 8:07 PM PDT
Civil Twilight 5:08 AM PDT 8:37 PM PDT
Nautical Twilight 4:31 AM PDT 9:14 PM PDT
Astronomical Twilight 3:51 AM PDT 9:54 PM PDT
Moon 5:40 PM PDT (6/14) 3:51 AM PDT (6/14)
Length of Visible Light 15h 29m
Length of Day
14h 30m
Waxing Gibbous, 93% of the Moon is Illuminated
Jun 14
Waxing Gibbous
Jun 17
Full
Jun 25
Last Quarter
Jul 2
New
Jul 9
First Quarter

Hourly Weather History & Observations

Time (PDT) Temp. Dew Point Humidity Pressure Visibility Wind Dir Wind Speed Gust Speed Precip Events Conditions
12:00 AM 78.8 °F 50.0 °F 36% 29.84 in 10.0 mi NW 26.5 mph 44.9 mph N/A   Clear
12:20 AM 78.8 °F 46.4 °F 32% 29.84 in 10.0 mi NW 33.4 mph 51.8 mph N/A   Partly Cloudy
12:40 AM 78.8 °F 46.4 °F 32% 29.84 in 10.0 mi NW 23.0 mph 51.8 mph N/A   Clear
1:00 AM 78.8 °F 46.4 °F 32% 29.84 in 10.0 mi NW 32.2 mph 41.4 mph N/A   Clear
1:20 AM 78.8 °F 46.4 °F 32% 29.83 in 10.0 mi NW 28.8 mph 48.3 mph N/A   Clear
1:40 AM 77.0 °F 48.2 °F 36% 29.84 in 10.0 mi NW 31.1 mph 46.0 mph N/A   Clear
2:00 AM 77.0 °F 46.4 °F 34% 29.82 in 10.0 mi NW 25.3 mph 47.2 mph N/A   Clear
2:20 AM 75.2 °F 48.2 °F 38% 29.83 in 10.0 mi NW 25.3 mph 38.0 mph N/A   Clear
2:40 AM 75.2 °F 48.2 °F 38% 29.83 in 10.0 mi WNW 23.0 mph 52.9 mph N/A   Clear
3:00 AM 75.2 °F 48.2 °F 38% 29.83 in 10.0 mi West 29.9 mph 38.0 mph N/A   Clear
3:20 AM 75.2 °F 46.4 °F 36% 29.83 in 10.0 mi WNW 26.5 mph 47.2 mph N/A   Clear
3:40 AM 73.4 °F 48.2 °F 41% 29.83 in 10.0 mi NW 28.8 mph 51.8 mph N/A   Clear
4:00 AM 73.4 °F 48.2 °F 41% 29.83 in 10.0 mi WNW 29.9 mph 41.4 mph N/A   Clear
4:20 AM 75.2 °F 46.4 °F 36% 29.84 in 10.0 mi WNW 29.9 mph 47.2 mph N/A   Clear
4:40 AM 73.4 °F 46.4 °F 38% 29.84 in 10.0 mi WNW 29.9 mph 41.4 mph N/A   Clear
5:00 AM 73.4 °F 44.6 °F 36% 29.84 in 10.0 mi NW 31.1 mph 43.7 mph N/A   Clear
5:20 AM 73.4 °F 44.6 °F 36% 29.84 in 10.0 mi WNW 33.4 mph 41.4 mph N/A   Clear
5:40 AM 73.4 °F 44.6 °F 36% 29.84 in 10.0 mi WNW 29.9 mph 38.0 mph N/A   Clear
6:00 AM 73.4 °F 44.6 °F 36% 29.85 in 10.0 mi NW 29.9 mph 40.3 mph N/A   Clear
6:20 AM 73.4 °F 44.6 °F 36% 29.86 in 10.0 mi WNW 28.8 mph 40.3 mph N/A   Clear
6:40 AM 73.4 °F 44.6 °F 36% 29.86 in 10.0 mi WNW 29.9 mph 40.3 mph N/A   Clear
7:00 AM 75.2 °F 44.6 °F 34% 29.86 in 10.0 mi WNW 28.8 mph 38.0 mph N/A   Clear
7:20 AM 75.2 °F 42.8 °F 31% 29.87 in 10.0 mi WNW 27.6 mph 36.8 mph N/A   Clear
7:40 AM 77.0 °F 44.6 °F 32% 29.86 in 10.0 mi WNW 28.8 mph 40.3 mph N/A   Clear
8:00 AM 78.8 °F 44.6 °F 30% 29.87 in 10.0 mi WNW 29.9 mph 36.8 mph N/A   Clear
8:20 AM 78.8 °F 44.6 °F 30% 29.88 in 10.0 mi WNW 29.9 mph 38.0 mph N/A   Clear
8:40 AM 80.6 °F 44.6 °F 28% 29.88 in 10.0 mi NW 31.1 mph 40.3 mph N/A   Clear
9:00 AM 80.6 °F 44.6 °F 28% 29.89 in 10.0 mi WNW 27.6 mph 35.7 mph N/A   Clear
9:20 AM 82.4 °F 44.6 °F 26% 29.89 in 10.0 mi WNW 28.8 mph - N/A   Clear
9:40 AM 82.4 °F 42.8 °F 25% 29.89 in 10.0 mi WNW 27.6 mph - N/A   Clear
10:00 AM 84.2 °F 41.0 °F 22% 29.89 in 10.0 mi WNW 27.6 mph 34.5 mph N/A   Clear
10:20 AM 84.2 °F 41.0 °F 22% 29.89 in 10.0 mi WNW 25.3 mph 31.1 mph N/A   Clear
10:40 AM 86.0 °F 39.2 °F 19% 29.90 in 10.0 mi WNW 26.5 mph 33.4 mph N/A   Clear
11:00 AM 86.0 °F 39.2 °F 19% 29.90 in 10.0 mi WNW 26.5 mph - N/A   Clear
11:20 AM 86.0 °F 39.2 °F 19% 29.90 in 10.0 mi West 26.5 mph - N/A   Clear
11:40 AM 87.8 °F 39.2 °F 18% 29.90 in 10.0 mi NW 19.6 mph 28.8 mph N/A   Clear
12:00 PM 87.8 °F 39.2 °F 18% 29.90 in 10.0 mi WNW 21.9 mph - N/A   Clear
12:20 PM 89.6 °F 39.2 °F 17% 29.90 in 10.0 mi WNW 23.0 mph 29.9 mph N/A   Clear
12:40 PM 89.6 °F 39.2 °F 17% 29.89 in 10.0 mi WNW 23.0 mph - N/A   Clear
1:00 PM 89.6 °F 39.2 °F 17% 29.89 in 10.0 mi WNW 23.0 mph - N/A   Clear
1:20 PM 89.6 °F 39.2 °F 17% 29.89 in 10.0 mi WNW 20.7 mph 28.8 mph N/A   Clear
1:40 PM 89.6 °F 39.2 °F 17% 29.89 in 10.0 mi North - - N/A   Clear
2:00 PM 89.6 °F 39.2 °F 17% 29.88 in 10.0 mi WNW 23.0 mph 29.9 mph N/A   Clear
2:20 PM 89.6 °F 39.2 °F 17% 29.88 in 10.0 mi WNW 24.2 mph - N/A   Clear
2:40 PM 91.4 °F 39.2 °F 16% 29.87 in 10.0 mi WNW 25.3 mph 32.2 mph N/A   Clear
3:00 PM 91.4 °F 41.0 °F 17% 29.87 in 10.0 mi WNW 25.3 mph - N/A   Clear
3:20 PM 89.6 °F 41.0 °F 18% 29.87 in 10.0 mi WNW 24.2 mph 34.5 mph N/A   Clear
3:40 PM 89.6 °F 41.0 °F 18% 29.87 in 10.0 mi WNW 24.2 mph 32.2 mph N/A   Clear
4:00 PM 89.6 °F 39.2 °F 17% 29.87 in 10.0 mi WNW 21.9 mph 32.2 mph N/A   Clear
4:20 PM 89.6 °F 39.2 °F 17% 29.86 in 10.0 mi NW 23.0 mph 31.1 mph N/A   Clear
4:40 PM 89.6 °F 37.4 °F 16% 29.86 in 10.0 mi NW 21.9 mph 28.8 mph N/A   Clear
5:00 PM 89.6 °F 37.4 °F 16% 29.85 in 10.0 mi WNW 20.7 mph 27.6 mph N/A   Clear
5:20 PM 89.6 °F 37.4 °F 16% 29.85 in 10.0 mi NW 23.0 mph 32.2 mph N/A   Clear
5:40 PM 87.8 °F 35.6 °F 16% 29.84 in 10.0 mi WNW 21.9 mph - N/A   Clear
6:00 PM 87.8 °F 35.6 °F 16% 29.84 in 10.0 mi WNW 23.0 mph 28.8 mph N/A   Clear
6:20 PM 86.0 °F 35.6 °F 17% 29.84 in 10.0 mi WNW 23.0 mph 31.1 mph N/A   Clear
6:40 PM 84.2 °F 35.6 °F 18% 29.84 in 10.0 mi WNW 24.2 mph 34.5 mph N/A   Clear
7:00 PM 84.2 °F 33.8 °F 16% 29.84 in 10.0 mi WNW 24.2 mph 32.2 mph N/A   Clear
7:20 PM 82.4 °F 35.6 °F 19% 29.84 in 10.0 mi WNW 28.8 mph 38.0 mph N/A   Clear
7:40 PM 82.4 °F 37.4 °F 20% 29.84 in 10.0 mi WNW 31.1 mph 38.0 mph N/A   Clear